Location: Alta
(39.2070°N, 120.8111°W)
Time: 05:17:29
(UTC+00:00)

CZ-4B DEB - Pass Details

Date: 12 December 2023
Orbit: 838 x 858 km, 99.0° (Epoch: 02 March)

Event Time Altitude Azimuth Distance (km) Brightness Sun altitude
Rises 03:41:28 0° 185° (S) 3,414 7.4 -34.2°
Reaches altitude 10° 03:43:58 10° 192° (SSW) 2,483 6.8 -34.7°
Enters shadow 03:46:09 23° 206° (SSW) 1,757 6.0 -35.1°
Exits shadow 03:49:12 40° 263° (W) 1,245 5.4 -35.7°
Drops below altitude 10° 03:54:19 10° 331° (NNW) 2,500 6.9 -36.7°
Sets 03:56:52 0° 339° (NNW) 3,440 7.6 -37.2°
